This is the latest recevied weather packets stored in our database for station/object N0QWM. If no packets are shown the sender has not sent any weather packets the latest 10 day(s).
| Time | Temp. | Humidity | Pressure | Rain* | Wind** | Luminosity | Snow |
|---|---|---|---|---|---|---|---|
| 1788393867 | 31.11° C | 69% | 1021.1 hPa | 0 mm | - | 2 W/m² | - |
| 1788393566 | 31.11° C | 68% | 1021.1 hPa | 0 mm | - | 4 W/m² | - |
| 1788393261 | 31.11° C | 68% | 1020.9 hPa | 0 mm | - | 4 W/m² | - |
| 1788392960 | 31.67° C | 67% | 1020.8 hPa | 0 mm | - | 6 W/m² | - |
| 1788392656 | 31.67° C | 66% | 1020.9 hPa | 0 mm | - | 7 W/m² | - |
| 1788392355 | 31.67° C | 65% | 1020.8 hPa | 0 mm | - | 10 W/m² | - |
| 1788392049 | 32.22° C | 64% | 1021 hPa | 0 mm | - | 12 W/m² | - |
| 1788391748 | 32.78° C | 63% | 1020.9 hPa | 0 mm | - | 14 W/m² | - |
| 1788391443 | 32.78° C | 62% | 1020.7 hPa | 0 mm | - | 16 W/m² | - |
| 1788391143 | 32.78° C | 61% | 1021 hPa | 0 mm | - | 19 W/m² | - |
| 1788390838 | 33.33° C | 60% | 1020.7 hPa | 0 mm | - | 21 W/m² | - |
| 1788390532 | 33.33° C | 60% | 1020.9 hPa | 0 mm | - | 27 W/m² | - |
| 1788390232 | 33.33° C | 59% | 1020.8 hPa | 0 mm | - | 32 W/m² | - |
| 1788389932 | 33.33° C | 59% | 1020.7 hPa | 0 mm | - | 37 W/m² | - |
| 1788389627 | 33.33° C | 58% | 1020.8 hPa | 0 mm | - | 38 W/m² | - |
| 1788389325 | 33.33° C | 58% | 1020.9 hPa | 0 mm | - | 40 W/m² | - |
| 1788389021 | 33.33° C | 57% | 1020.7 hPa | 0 mm | - | 47 W/m² | - |
| 1788388718 | 33.33° C | 56% | 1020.5 hPa | 0 mm | - | 50 W/m² | - |
| 1788388417 | 33.33° C | 55% | 1020.7 hPa | 0 mm | - | 45 W/m² | - |
| 1788388117 | 33.89° C | 54% | 1021 hPa | 0 mm | - | 40 W/m² | - |
| 1788387815 | 33.89° C | 53% | 1020.6 hPa | 0 mm | - | 37 W/m² | - |
| 1788387510 | 33.89° C | 53% | 1021 hPa | 0 mm | - | 34 W/m² | - |
| 1788387209 | 33.89° C | 53% | 1021 hPa | 0 mm | - | 32 W/m² | - |
| 1788386905 | 34.44° C | 52% | 1020.9 hPa | 0 mm | - | 32 W/m² | - |
| 1788386604 | 34.44° C | 52% | 1021 hPa | 0 mm | - | 31 W/m² | - |
* Rain latest hour (hover to see other rain measurements)
** Current wind speed in m/s (hover to see current wind gust speed)